DAL4920 MMUN-PHNL

Flight info

Callsign DAL4920
Flight time 9h 34m
Altitude 36000
Route CUN3A CUN UJ84 CZA UT20 PAZ UT154 ENAGA DCT OVAGO UT123 IGSON/N0491F380 UT123 ULUVO DCT GDL UJ14 PVR UJ48 CSL DCT 24N115W 25N120W 26N130W/N0487F400 24N140W 22N150W DCT FAPIS R578 DEREC V21 FUNKI DCT BEACH SHLAE1
Aircraft A359/H-SDE2E3GHIJ3J4J5LM1ORWXY/LB1D1

Departure

Time 2026-05-04 05:45
Airport Cancún International Airport (MMUN)

Arrival

Time 2026-05-04 15:19
Airport Daniel K. Inouye International Airport (PHNL)
Time Latitude Longitude Altitude Speed Heading
2026-05-04 05:40 21.04173 -86.88206 36 ft 17 kts 304°
2026-05-04 05:40 21.04240 -86.88316 37 ft 18 kts 302°
2026-05-04 05:40 21.04310 -86.88428 37 ft 18 kts 304°
2026-05-04 05:41 21.04383 -86.88544 37 ft 19 kts 304°
2026-05-04 05:41 21.04458 -86.88664 37 ft 20 kts 304°
2026-05-04 05:41 21.04535 -86.88788 36 ft 21 kts 302°
2026-05-04 05:41 21.04600 -86.88893 36 ft 15 kts 303°
2026-05-04 05:42 21.04636 -86.88990 36 ft 8 kts 258°
2026-05-04 05:42 21.04620 -86.89013 37 ft 5 kts 222°
2026-05-04 05:42 21.04578 -86.89049 38 ft 8 kts 216°
2026-05-04 05:42 21.04527 -86.89065 38 ft 7 kts 166°
2026-05-04 05:43 21.04493 -86.89032 38 ft 7 kts 128°
2026-05-04 05:43 21.04485 -86.89020 37 ft 0 kts 126°
2026-05-04 05:45 21.02358 -86.85469 1097 ft 165 kts 118°
2026-05-04 05:45 21.01715 -86.84379 1446 ft 182 kts 123°
2026-05-04 05:47 20.93916 -86.79991 3953 ft 270 kts 238°
2026-05-04 05:47 20.93429 -86.81889 4530 ft 273 kts 272°
2026-05-04 05:47 20.93997 -86.83802 5138 ft 274 kts 305°
2026-05-04 05:48 20.95446 -86.85085 5713 ft 275 kts 338°
2026-05-04 05:48 20.97313 -86.85464 6330 ft 275 kts 356°
2026-05-04 05:48 20.99200 -86.85842 6889 ft 279 kts 336°
2026-05-04 05:48 21.00711 -86.87114 7472 ft 281 kts 305°
2026-05-04 05:49 21.01435 -86.89037 8078 ft 283 kts 277°
2026-05-04 05:49 21.01372 -86.91137 8752 ft 284 kts 262°
2026-05-04 05:49 21.01002 -86.93216 9460 ft 285 kts 257°
2026-05-04 05:49 21.00497 -86.95275 10118 ft 287 kts 254°
2026-05-04 05:51 20.96263 -87.12195 12010 ft 377 kts 256°
2026-05-04 05:51 20.95620 -87.14933 12445 ft 381 kts 256°
2026-05-04 05:52 20.94971 -87.17691 12897 ft 383 kts 256°
2026-05-04 05:52 20.94317 -87.20464 13340 ft 386 kts 256°
2026-05-04 05:52 20.93657 -87.23255 13801 ft 389 kts 256°
2026-05-04 05:52 20.93002 -87.26028 14189 ft 391 kts 256°
2026-05-04 05:53 20.92332 -87.28848 14610 ft 392 kts 256°
2026-05-04 05:54 20.87552 -87.48864 17470 ft 402 kts 256°
2026-05-04 05:55 20.86858 -87.51768 17847 ft 404 kts 257°
2026-05-04 05:55 20.86170 -87.54643 18227 ft 406 kts 257°
2026-05-04 05:55 20.85468 -87.57571 18563 ft 408 kts 257°
2026-05-04 05:55 20.84762 -87.60519 18847 ft 410 kts 257°
2026-05-04 05:56 20.84052 -87.63478 19150 ft 413 kts 257°
2026-05-04 05:56 20.83335 -87.66463 19458 ft 415 kts 257°
2026-05-04 05:56 20.82616 -87.69455 19765 ft 417 kts 257°
2026-05-04 05:56 20.81892 -87.72464 20044 ft 419 kts 257°
2026-05-04 05:57 20.81162 -87.75497 20318 ft 422 kts 257°
2026-05-04 05:57 20.80429 -87.78541 20623 ft 424 kts 258°
2026-05-04 05:57 20.79693 -87.81607 20925 ft 427 kts 258°
2026-05-04 05:57 20.78950 -87.84682 21214 ft 430 kts 257°
2026-05-04 05:58 20.78206 -87.87752 21462 ft 433 kts 257°
2026-05-04 05:58 20.77448 -87.90875 21790 ft 435 kts 258°
2026-05-04 05:58 20.76686 -87.94010 22134 ft 437 kts 258°
2026-05-04 05:58 20.75921 -87.97157 22468 ft 439 kts 258°
2026-05-04 05:59 20.75151 -88.00327 22798 ft 441 kts 258°
2026-05-04 05:59 20.74378 -88.03506 23116 ft 443 kts 258°
2026-05-04 05:59 20.73602 -88.06698 23441 ft 445 kts 258°
2026-05-04 05:59 20.72818 -88.09921 23721 ft 448 kts 258°
2026-05-04 06:00 20.72030 -88.13157 23918 ft 452 kts 258°
2026-05-04 06:00 20.71238 -88.16402 24231 ft 452 kts 258°
2026-05-04 06:00 20.70448 -88.19653 24566 ft 452 kts 258°
2026-05-04 06:00 20.69666 -88.22861 24911 ft 453 kts 258°
2026-05-04 06:01 20.68867 -88.26122 25250 ft 454 kts 258°
2026-05-04 06:01 20.68067 -88.29386 25611 ft 455 kts 258°
2026-05-04 06:03 20.64491 -88.52632 28186 ft 459 kts 273°
2026-05-04 06:03 20.64596 -88.56044 28538 ft 460 kts 273°
2026-05-04 06:05 20.65468 -88.80184 30667 ft 468 kts 272°
2026-05-04 06:05 20.65688 -88.87065 31308 ft 466 kts 272°
2026-05-04 06:05 20.65797 -88.90527 31550 ft 467 kts 272°
2026-05-04 06:06 20.65907 -88.93988 31861 ft 466 kts 272°
2026-05-04 06:06 20.66015 -88.97436 32212 ft 464 kts 272°
2026-05-04 06:06 20.66122 -89.00875 32531 ft 463 kts 272°
2026-05-04 06:06 20.66229 -89.04309 32841 ft 462 kts 272°
2026-05-04 06:07 20.66335 -89.07733 33148 ft 461 kts 272°
2026-05-04 06:07 20.66440 -89.11147 33438 ft 460 kts 272°
2026-05-04 06:07 20.66544 -89.14556 33730 ft 459 kts 272°
2026-05-04 06:07 20.66647 -89.17959 34017 ft 458 kts 271°
2026-05-04 06:08 20.66748 -89.21312 34266 ft 457 kts 271°
2026-05-04 06:08 20.66847 -89.24698 34521 ft 456 kts 271°
2026-05-04 06:08 20.66940 -89.28086 34706 ft 456 kts 271°
2026-05-04 06:08 20.67033 -89.31472 34918 ft 455 kts 271°
2026-05-04 06:09 20.67127 -89.34849 35162 ft 454 kts 271°
2026-05-04 06:09 20.67222 -89.38215 35399 ft 453 kts 271°
2026-05-04 06:11 20.67885 -89.61509 36883 ft 446 kts 270°
2026-05-04 06:11 20.67977 -89.64814 37069 ft 445 kts 270°
2026-05-04 06:13 20.68595 -89.87770 38025 ft 444 kts 270°
2026-05-04 06:14 20.69185 -90.10880 38029 ft 444 kts 270°
2026-05-04 06:15 20.69349 -90.17479 38014 ft 444 kts 270°
2026-05-04 06:15 20.69509 -90.24076 38024 ft 444 kts 270°
2026-05-04 06:16 20.69666 -90.30636 38015 ft 444 kts 270°
2026-05-04 06:16 20.69822 -90.37237 38022 ft 444 kts 270°
2026-05-04 06:17 20.69975 -90.43836 38031 ft 444 kts 270°
2026-05-04 06:17 20.70124 -90.50382 38024 ft 444 kts 270°
2026-05-04 06:18 20.70272 -90.56970 38022 ft 444 kts 270°
2026-05-04 06:20 20.70837 -90.83282 38025 ft 444 kts 269°
2026-05-04 06:21 20.71170 -90.99760 38033 ft 444 kts 269°
2026-05-04 06:22 20.71299 -91.06359 38032 ft 444 kts 269°
2026-05-04 06:25 20.72132 -91.52531 38032 ft 445 kts 269°
2026-05-04 06:26 20.72241 -91.59157 38026 ft 447 kts 269°
2026-05-04 06:26 20.72348 -91.65804 38031 ft 448 kts 269°
2026-05-04 06:27 20.72605 -91.82396 38024 ft 448 kts 269°
2026-05-04 06:28 20.72703 -91.89048 38027 ft 448 kts 269°
2026-05-04 06:28 20.72799 -91.95711 38035 ft 449 kts 269°
2026-05-04 06:29 20.72892 -92.02395 38028 ft 450 kts 269°
2026-05-04 06:29 20.72984 -92.09090 38035 ft 451 kts 269°
2026-05-04 06:30 20.73072 -92.15739 38045 ft 450 kts 269°
2026-05-04 06:30 20.73158 -92.22436 38047 ft 451 kts 269°
2026-05-04 06:31 20.73242 -92.29133 38029 ft 450 kts 269°
2026-05-04 06:31 20.73322 -92.35790 38044 ft 452 kts 269°
2026-05-04 06:33 20.73620 -92.62612 38047 ft 452 kts 269°
2026-05-04 06:34 20.73688 -92.69323 38048 ft 452 kts 269°
2026-05-04 06:34 20.73754 -92.76047 38047 ft 453 kts 269°
2026-05-04 06:36 20.73991 -93.02944 38046 ft 453 kts 269°
2026-05-04 06:37 20.74043 -93.09683 38039 ft 454 kts 269°
2026-05-04 06:37 20.74093 -93.16398 38047 ft 455 kts 269°
2026-05-04 06:38 20.74140 -93.23150 38054 ft 455 kts 269°
2026-05-04 06:40 20.74304 -93.50126 38043 ft 455 kts 269°
2026-05-04 06:40 20.74338 -93.56880 38054 ft 455 kts 269°
2026-05-04 06:41 20.74370 -93.63637 38051 ft 455 kts 269°
2026-05-04 06:41 20.74399 -93.70392 38057 ft 455 kts 269°
2026-05-04 06:42 20.74425 -93.77102 38051 ft 455 kts 269°
2026-05-04 06:44 20.74504 -94.04062 38040 ft 454 kts 269°
2026-05-04 06:44 20.74517 -94.10808 38056 ft 454 kts 269°
2026-05-04 06:45 20.74528 -94.17554 38053 ft 454 kts 269°
2026-05-04 06:45 20.74536 -94.24302 38059 ft 454 kts 269°
2026-05-04 06:46 20.74541 -94.31040 38055 ft 453 kts 269°
2026-05-04 06:46 20.74544 -94.37730 38054 ft 453 kts 269°
2026-05-04 06:48 20.74528 -94.64651 38052 ft 450 kts 269°
2026-05-04 06:50 20.74472 -94.91249 38046 ft 448 kts 269°
2026-05-04 06:51 20.74452 -94.97908 38063 ft 449 kts 269°
2026-05-04 06:51 20.74346 -95.04581 38059 ft 449 kts 266°
2026-05-04 06:52 20.73964 -95.11204 38066 ft 450 kts 265°
2026-05-04 06:52 20.73550 -95.17879 38063 ft 450 kts 266°
2026-05-04 06:53 20.73179 -95.24549 38060 ft 450 kts 266°
2026-05-04 06:53 20.72878 -95.30102 38052 ft 450 kts 266°
2026-05-04 06:54 20.72519 -95.36783 38062 ft 451 kts 266°
2026-05-04 06:54 20.72158 -95.43471 38067 ft 452 kts 266°
2026-05-04 06:55 20.71795 -95.50127 38055 ft 451 kts 266°
2026-05-04 06:55 20.71428 -95.56825 38063 ft 451 kts 266°
2026-05-04 06:57 20.69933 -95.83603 38067 ft 453 kts 266°
2026-05-04 06:58 20.69554 -95.90271 38060 ft 453 kts 265°
2026-05-04 06:58 20.69169 -95.96988 38067 ft 453 kts 265°
2026-05-04 06:59 20.68783 -96.03693 38058 ft 453 kts 265°
2026-05-04 06:59 20.68393 -96.10413 38069 ft 453 kts 266°
2026-05-04 07:01 20.66806 -96.37337 38070 ft 455 kts 266°
2026-05-04 07:02 20.66404 -96.44047 38073 ft 455 kts 266°
2026-05-04 07:02 20.65996 -96.50799 38068 ft 456 kts 266°
2026-05-04 07:03 20.65585 -96.57568 38078 ft 457 kts 266°
2026-05-04 07:03 20.65171 -96.64345 38070 ft 457 kts 266°
2026-05-04 07:04 20.64758 -96.71073 38070 ft 457 kts 266°
2026-05-04 07:04 20.64339 -96.77839 38071 ft 457 kts 266°
2026-05-04 07:05 20.63920 -96.84614 38067 ft 457 kts 266°
2026-05-04 07:05 20.63495 -96.91397 38075 ft 458 kts 265°
2026-05-04 07:06 20.62850 -97.01542 38076 ft 458 kts 265°
2026-05-04 07:07 20.62417 -97.08329 38078 ft 458 kts 265°
2026-05-04 07:09 20.60663 -97.35453 38080 ft 459 kts 265°
2026-05-04 07:09 20.59823 -97.42185 38080 ft 458 kts 255°
2026-05-04 07:10 20.57358 -97.48446 38075 ft 461 kts 239°
2026-05-04 07:12 20.40867 -97.69638 38079 ft 466 kts 231°
2026-05-04 07:12 20.36673 -97.74916 38085 ft 466 kts 231°
2026-05-04 07:13 20.32485 -97.80193 38078 ft 466 kts 231°
2026-05-04 07:13 20.28318 -97.85436 38081 ft 466 kts 231°
2026-05-04 07:14 20.17825 -97.98608 38096 ft 467 kts 231°
2026-05-04 07:15 20.13624 -98.03875 38093 ft 467 kts 231°
2026-05-04 07:15 20.09405 -98.09158 38106 ft 467 kts 231°
2026-05-04 07:16 20.05225 -98.14376 38104 ft 467 kts 231°
2026-05-04 07:16 20.01484 -98.19979 38113 ft 465 kts 243°
2026-05-04 07:17 19.98671 -98.26180 38113 ft 464 kts 246°
2026-05-04 07:17 19.96037 -98.32443 38112 ft 464 kts 247°
2026-05-04 07:18 19.93422 -98.38708 38097 ft 464 kts 246°
2026-05-04 07:18 19.90797 -98.44944 38106 ft 466 kts 246°
2026-05-04 07:19 19.88137 -98.51226 38094 ft 466 kts 246°
2026-05-04 07:19 19.85471 -98.57508 38103 ft 466 kts 246°
2026-05-04 07:20 19.82803 -98.63787 38099 ft 466 kts 246°
2026-05-04 07:20 19.80135 -98.70061 38148 ft 466 kts 246°
2026-05-04 07:22 19.70774 -98.92018 38387 ft 467 kts 246°
2026-05-04 07:22 19.69431 -98.95163 38396 ft 467 kts 246°
2026-05-04 07:23 19.68089 -98.98302 38174 ft 467 kts 246°
2026-05-04 07:23 19.66743 -99.01446 38201 ft 467 kts 246°
2026-05-04 07:23 19.64072 -99.07686 38245 ft 468 kts 246°
2026-05-04 07:24 19.61376 -99.13977 38263 ft 469 kts 246°
2026-05-04 07:24 19.58670 -99.20281 38254 ft 470 kts 246°
2026-05-04 07:26 19.47818 -99.45498 38348 ft 471 kts 246°
2026-05-04 07:27 19.45091 -99.51819 38428 ft 472 kts 246°
2026-05-04 07:27 19.42357 -99.58143 38478 ft 473 kts 246°
2026-05-04 07:28 19.39634 -99.64438 38470 ft 472 kts 246°
2026-05-04 07:28 19.36895 -99.70762 38410 ft 472 kts 246°
2026-05-04 07:29 19.34152 -99.77088 38332 ft 472 kts 246°
2026-05-04 07:29 19.31410 -99.83406 38233 ft 472 kts 246°
2026-05-04 07:30 19.28661 -99.89732 38146 ft 473 kts 246°
2026-05-04 07:30 19.25926 -99.96018 38081 ft 473 kts 246°
2026-05-04 07:31 19.23171 -100.02344 38047 ft 473 kts 246°
2026-05-04 07:33 19.21765 -100.25688 37998 ft 473 kts 287°
2026-05-04 07:33 19.22814 -100.28987 37952 ft 473 kts 287°
2026-05-04 07:33 19.24968 -100.35567 37964 ft 473 kts 288°
2026-05-04 07:34 19.27104 -100.42164 37970 ft 473 kts 287°
2026-05-04 07:34 19.29206 -100.48764 37939 ft 473 kts 287°
2026-05-04 07:35 19.31280 -100.55324 37937 ft 473 kts 287°
2026-05-04 07:35 19.33367 -100.61935 37918 ft 473 kts 287°
2026-05-04 07:36 19.35451 -100.68543 37931 ft 473 kts 287°
2026-05-04 07:38 19.44367 -100.94741 37917 ft 473 kts 288°
2026-05-04 07:38 19.46621 -101.01297 37928 ft 473 kts 288°
2026-05-04 07:39 19.48865 -101.07849 37950 ft 472 kts 288°
2026-05-04 07:39 19.51102 -101.14384 37948 ft 472 kts 288°
2026-05-04 07:40 19.53338 -101.20927 37942 ft 472 kts 288°
2026-05-04 07:40 19.55557 -101.27425 37942 ft 472 kts 288°
2026-05-04 07:41 19.57788 -101.33966 37885 ft 472 kts 288°
2026-05-04 07:41 19.60016 -101.40507 37887 ft 472 kts 288°
2026-05-04 07:42 19.62243 -101.47055 37907 ft 472 kts 288°
2026-05-04 07:42 19.64467 -101.53603 37909 ft 471 kts 288°
2026-05-04 07:43 19.66673 -101.60105 37905 ft 471 kts 288°
2026-05-04 07:43 19.68889 -101.66648 37905 ft 471 kts 288°
2026-05-04 07:44 19.71108 -101.73208 37905 ft 471 kts 288°
2026-05-04 07:44 19.73320 -101.79754 37916 ft 471 kts 288°
2026-05-04 07:45 19.75525 -101.86289 37919 ft 470 kts 288°
2026-05-04 07:45 19.77713 -101.92783 37933 ft 470 kts 288°
2026-05-04 07:46 19.79910 -101.99314 37903 ft 470 kts 288°
2026-05-04 07:46 19.82106 -102.05848 37914 ft 470 kts 288°
2026-05-04 07:47 19.84301 -102.12388 37912 ft 471 kts 288°
2026-05-04 07:49 19.93064 -102.38583 37898 ft 471 kts 288°
2026-05-04 07:49 19.95700 -102.44908 37896 ft 473 kts 300°
2026-05-04 07:50 19.99332 -102.50742 37907 ft 474 kts 303°
2026-05-04 07:50 20.03134 -102.56475 37880 ft 474 kts 303°
2026-05-04 07:51 20.06945 -102.62179 37874 ft 473 kts 303°
2026-05-04 07:51 20.10713 -102.67857 37890 ft 472 kts 303°
2026-05-04 07:52 20.14490 -102.73578 37860 ft 472 kts 303°
2026-05-04 07:52 20.18262 -102.79302 37872 ft 473 kts 303°
2026-05-04 07:54 20.33349 -103.02243 37879 ft 473 kts 303°
2026-05-04 07:55 20.37117 -103.07986 37886 ft 473 kts 303°
2026-05-04 07:55 20.40882 -103.13730 37860 ft 473 kts 303°
2026-05-04 07:56 20.44646 -103.19480 37868 ft 472 kts 303°
2026-05-04 07:56 20.48379 -103.25187 37879 ft 472 kts 303°
2026-05-04 07:57 20.51519 -103.31295 37873 ft 470 kts 289°
2026-05-04 07:57 20.52961 -103.38062 37888 ft 469 kts 277°
2026-05-04 07:58 20.53663 -103.44998 37889 ft 471 kts 275°
2026-05-04 07:58 20.54253 -103.51956 37906 ft 471 kts 275°
2026-05-04 07:59 20.54858 -103.58913 37906 ft 471 kts 276°
2026-05-04 07:59 20.55482 -103.65820 37925 ft 471 kts 276°
2026-05-04 08:00 20.56116 -103.72772 37928 ft 471 kts 276°
2026-05-04 08:02 20.58612 -104.00483 37976 ft 468 kts 276°
2026-05-04 08:02 20.59223 -104.07398 37990 ft 468 kts 276°
2026-05-04 08:03 20.59832 -104.14308 37993 ft 468 kts 276°
2026-05-04 08:03 20.60438 -104.21220 37994 ft 468 kts 276°
2026-05-04 08:04 20.61036 -104.28076 38007 ft 466 kts 276°
2026-05-04 08:04 20.61639 -104.34963 38007 ft 466 kts 276°
2026-05-04 08:05 20.62241 -104.41850 38018 ft 466 kts 276°
2026-05-04 08:05 20.62844 -104.48747 38019 ft 466 kts 276°
2026-05-04 08:06 20.63431 -104.55588 38024 ft 466 kts 276°
2026-05-04 08:06 20.64017 -104.62476 38027 ft 466 kts 276°
2026-05-04 08:08 20.66342 -104.90033 38024 ft 466 kts 276°
2026-05-04 08:11 20.69002 -105.20917 38037 ft 464 kts 281°
2026-05-04 08:11 20.70953 -105.27400 38039 ft 462 kts 295°
2026-05-04 08:11 20.72373 -105.30479 38032 ft 462 kts 296°
2026-05-04 08:12 20.75396 -105.36561 38030 ft 463 kts 297°
2026-05-04 08:12 20.78473 -105.42614 38020 ft 464 kts 297°
2026-05-04 08:13 20.81532 -105.48678 38004 ft 463 kts 297°
2026-05-04 08:13 20.84553 -105.54715 37993 ft 463 kts 297°
2026-05-04 08:14 20.87584 -105.60795 37983 ft 463 kts 297°
2026-05-04 08:16 20.99737 -105.85209 37994 ft 466 kts 297°
2026-05-04 08:16 21.02779 -105.91335 37993 ft 466 kts 297°
2026-05-04 08:17 21.05802 -105.97432 38000 ft 467 kts 297°
2026-05-04 08:17 21.08848 -106.03586 37998 ft 468 kts 297°
2026-05-04 08:19 21.21017 -106.28229 38003 ft 469 kts 297°
2026-05-04 08:20 21.23548 -106.33367 38003 ft 469 kts 297°
2026-05-04 08:20 21.26589 -106.39550 38006 ft 468 kts 297°
2026-05-04 08:21 21.29625 -106.45729 38003 ft 468 kts 297°
2026-05-04 08:21 21.32656 -106.51905 38006 ft 468 kts 297°
2026-05-04 08:22 21.35667 -106.58049 38003 ft 467 kts 297°
2026-05-04 08:24 21.47712 -106.82690 38016 ft 465 kts 297°
2026-05-04 08:24 21.50711 -106.88844 38003 ft 465 kts 297°
2026-05-04 08:25 21.53709 -106.95003 38011 ft 465 kts 297°
2026-05-04 08:25 21.56706 -107.01167 38021 ft 465 kts 297°
2026-05-04 08:27 21.68547 -107.25591 38012 ft 460 kts 297°
2026-05-04 08:28 21.71500 -107.31699 38007 ft 460 kts 297°
2026-05-04 08:28 21.74429 -107.37766 38012 ft 460 kts 297°
2026-05-04 08:29 21.77376 -107.43875 38012 ft 460 kts 297°
2026-05-04 08:31 21.89071 -107.68196 38002 ft 456 kts 297°
2026-05-04 08:33 22.00699 -107.92493 38012 ft 456 kts 297°
2026-05-04 08:35 22.12262 -108.16766 38002 ft 453 kts 297°
2026-05-04 08:35 22.15132 -108.22808 38000 ft 453 kts 297°
2026-05-04 08:37 22.25146 -108.43947 38010 ft 453 kts 297°
2026-05-04 08:38 22.28012 -108.50013 37989 ft 454 kts 297°
2026-05-04 08:38 22.30875 -108.56081 38003 ft 454 kts 297°
2026-05-04 08:40 22.42247 -108.80258 38009 ft 451 kts 297°
2026-05-04 08:41 22.45086 -108.86311 37991 ft 452 kts 297°
2026-05-04 08:41 22.47908 -108.92336 37983 ft 452 kts 297°
2026-05-04 08:42 22.50747 -108.98405 37981 ft 452 kts 297°
2026-05-04 08:42 22.53583 -109.04475 37982 ft 452 kts 297°
2026-05-04 08:43 22.56416 -109.10547 37985 ft 452 kts 297°
2026-05-04 08:43 22.59246 -109.16617 37976 ft 450 kts 296°
2026-05-04 08:44 22.62042 -109.22624 37976 ft 449 kts 296°
2026-05-04 08:46 22.73244 -109.46759 37976 ft 449 kts 296°
2026-05-04 08:46 22.76040 -109.52801 37977 ft 448 kts 296°
2026-05-04 08:47 22.78827 -109.58842 37976 ft 448 kts 296°
2026-05-04 08:47 22.81620 -109.64886 37995 ft 448 kts 296°
2026-05-04 08:48 22.84403 -109.70919 37985 ft 446 kts 296°
2026-05-04 08:48 22.87152 -109.76890 37985 ft 445 kts 296°
2026-05-04 08:49 22.89920 -109.82908 37993 ft 446 kts 296°
2026-05-04 08:50 22.96590 -110.01657 38007 ft 447 kts 284°
2026-05-04 08:50 22.97319 -110.04893 38007 ft 447 kts 284°
2026-05-04 08:51 22.98769 -110.11453 38017 ft 447 kts 284°
2026-05-04 08:51 23.00224 -110.18020 38018 ft 448 kts 284°
2026-05-04 08:52 23.01690 -110.24593 38021 ft 448 kts 284°
2026-05-04 08:52 23.03156 -110.31163 38020 ft 448 kts 284°
2026-05-04 08:54 23.08964 -110.57315 38034 ft 446 kts 283°
2026-05-04 08:55 23.10410 -110.63865 38031 ft 446 kts 283°
2026-05-04 08:55 23.11843 -110.70366 38037 ft 446 kts 283°
2026-05-04 09:01 23.26784 -111.38973 38042 ft 444 kts 283°
2026-05-04 09:01 23.28191 -111.45514 38048 ft 444 kts 283°
2026-05-04 09:02 23.29595 -111.52054 38043 ft 444 kts 283°
2026-05-04 09:02 23.30996 -111.58595 38046 ft 444 kts 283°
2026-05-04 09:03 23.32395 -111.65140 38048 ft 444 kts 283°
2026-05-04 09:03 23.33782 -111.71641 38045 ft 444 kts 283°
2026-05-04 09:04 23.35176 -111.78192 38047 ft 444 kts 283°
2026-05-04 09:04 23.36567 -111.84741 38045 ft 444 kts 282°
2026-05-04 09:05 23.37953 -111.91279 38047 ft 443 kts 282°
2026-05-04 09:05 23.39337 -111.97826 38049 ft 444 kts 282°
2026-05-04 09:06 23.40707 -112.04316 38042 ft 442 kts 282°
2026-05-04 09:08 23.46173 -112.30366 38042 ft 442 kts 282°
2026-05-04 09:08 23.47535 -112.36892 38042 ft 442 kts 282°
2026-05-04 09:09 23.48896 -112.43430 38042 ft 442 kts 282°
2026-05-04 09:09 23.50253 -112.49960 38045 ft 442 kts 281°
2026-05-04 09:10 23.51599 -112.56452 38045 ft 442 kts 281°
2026-05-04 09:10 23.52952 -112.62993 38045 ft 442 kts 281°
2026-05-04 09:11 23.54302 -112.69534 38042 ft 442 kts 281°
2026-05-04 09:11 23.55651 -112.76087 38045 ft 442 kts 281°
2026-05-04 09:12 23.56986 -112.82578 38048 ft 442 kts 281°
2026-05-04 09:14 23.62317 -113.08669 38045 ft 441 kts 281°
2026-05-04 09:14 23.63644 -113.15200 38045 ft 441 kts 281°
2026-05-04 09:15 23.64969 -113.21738 38045 ft 441 kts 281°
2026-05-04 09:15 23.66291 -113.28276 38051 ft 441 kts 281°
2026-05-04 09:17 23.72194 -113.57639 38053 ft 442 kts 280°
2026-05-04 09:18 23.73502 -113.64190 38050 ft 442 kts 280°
2026-05-04 09:18 23.74809 -113.70740 38056 ft 441 kts 280°
2026-05-04 09:19 23.76108 -113.77279 38055 ft 441 kts 279°
2026-05-04 09:19 23.77406 -113.83826 38056 ft 441 kts 279°
2026-05-04 09:20 23.78701 -113.90371 38053 ft 441 kts 279°
2026-05-04 09:20 23.79987 -113.96883 38056 ft 441 kts 279°
2026-05-04 09:21 23.81277 -114.03432 38056 ft 441 kts 279°
2026-05-04 09:21 23.82564 -114.09980 38056 ft 442 kts 279°
2026-05-04 09:22 23.83853 -114.16554 38059 ft 442 kts 279°
2026-05-04 09:22 23.85128 -114.23075 38059 ft 442 kts 279°
2026-05-04 09:23 23.86410 -114.29643 38061 ft 442 kts 279°
2026-05-04 09:23 23.87688 -114.36208 38061 ft 442 kts 279°
2026-05-04 09:25 23.92761 -114.62422 38066 ft 440 kts 279°
2026-05-04 09:26 23.94021 -114.68976 38065 ft 440 kts 279°
2026-05-04 09:26 23.95279 -114.75531 38065 ft 440 kts 279°
2026-05-04 09:27 23.96534 -114.82085 38066 ft 440 kts 279°
2026-05-04 09:27 23.97786 -114.88640 38068 ft 440 kts 279°
2026-05-04 09:28 23.99026 -114.95152 38068 ft 440 kts 279°
2026-05-04 09:28 24.00276 -115.01704 38063 ft 441 kts 279°
2026-05-04 09:29 24.01674 -115.08247 38064 ft 442 kts 281°
2026-05-04 09:29 24.03134 -115.14767 38073 ft 442 kts 280°
2026-05-04 09:30 24.04575 -115.21301 38068 ft 441 kts 280°
2026-05-04 09:30 24.05993 -115.27831 38070 ft 440 kts 280°
2026-05-04 09:31 24.07387 -115.34298 38067 ft 439 kts 279°
2026-05-04 09:31 24.08788 -115.40814 38067 ft 440 kts 279°
2026-05-04 09:32 24.10191 -115.47345 38068 ft 441 kts 279°
2026-05-04 09:34 24.15766 -115.73432 38070 ft 441 kts 279°
2026-05-04 09:34 24.17157 -115.79975 38070 ft 441 kts 279°
2026-05-04 09:35 24.18543 -115.86515 38066 ft 441 kts 279°
2026-05-04 09:35 24.19920 -115.93020 38073 ft 441 kts 279°
2026-05-04 09:37 24.25403 -116.19080 38070 ft 439 kts 279°
2026-05-04 09:38 24.26767 -116.25602 38071 ft 439 kts 279°
2026-05-04 09:38 24.28129 -116.32123 38072 ft 439 kts 278°
2026-05-04 09:39 24.29487 -116.38647 38073 ft 439 kts 278°
2026-05-04 09:39 24.30835 -116.45132 38073 ft 439 kts 278°
2026-05-04 09:40 24.32188 -116.51657 38070 ft 439 kts 278°
2026-05-04 09:40 24.33541 -116.58193 38067 ft 439 kts 278°
2026-05-04 09:42 24.38905 -116.84270 38069 ft 438 kts 278°
2026-05-04 09:43 24.40238 -116.90789 38071 ft 438 kts 278°
2026-05-04 09:43 24.41344 -116.96212 38073 ft 439 kts 278°
2026-05-04 09:44 24.42891 -117.03810 38072 ft 439 kts 278°
2026-05-04 09:46 24.47965 -117.28875 38075 ft 440 kts 278°
2026-05-04 09:46 24.49285 -117.35434 38075 ft 440 kts 278°
2026-05-04 09:47 24.50603 -117.41997 38078 ft 439 kts 278°
2026-05-04 09:49 24.55815 -117.68103 38076 ft 438 kts 277°
2026-05-04 09:51 24.60338 -117.90962 38075 ft 438 kts 277°
2026-05-04 09:51 24.61627 -117.97510 38078 ft 438 kts 277°
2026-05-04 09:52 24.62912 -118.04053 38078 ft 438 kts 277°
2026-05-04 09:52 24.64186 -118.10560 38099 ft 438 kts 277°
2026-05-04 09:53 24.65463 -118.17089 38078 ft 436 kts 277°
2026-05-04 09:53 24.66732 -118.23602 38073 ft 435 kts 277°
2026-05-04 09:54 24.67997 -118.30113 38077 ft 435 kts 277°
2026-05-04 09:54 24.69261 -118.36630 38073 ft 435 kts 277°
2026-05-04 09:55 24.70512 -118.43092 38072 ft 434 kts 277°
2026-05-04 09:55 24.71765 -118.49581 38064 ft 434 kts 277°
2026-05-04 09:56 24.73015 -118.56073 38070 ft 434 kts 277°
2026-05-04 09:56 24.74261 -118.62564 38061 ft 434 kts 276°
2026-05-04 09:57 24.75506 -118.69057 38064 ft 433 kts 276°
2026-05-04 09:57 24.76736 -118.75488 38077 ft 432 kts 276°
2026-05-04 09:58 24.77970 -118.81961 38074 ft 432 kts 276°
2026-05-04 09:58 24.79201 -118.88434 38072 ft 432 kts 276°
2026-05-04 10:00 24.84080 -119.14239 38075 ft 430 kts 276°
2026-05-04 10:04 24.92498 -119.59377 38070 ft 430 kts 275°
2026-05-04 10:04 24.93692 -119.65850 38070 ft 431 kts 275°
2026-05-04 10:05 24.94875 -119.72272 38070 ft 431 kts 275°
2026-05-04 10:05 24.96064 -119.78745 38067 ft 431 kts 275°
2026-05-04 10:06 24.97250 -119.85216 38069 ft 431 kts 275°
2026-05-04 10:06 24.98437 -119.91712 38066 ft 432 kts 275°
2026-05-04 10:08 25.01936 -120.14462 38067 ft 430 kts 272°
2026-05-04 10:08 25.02767 -120.20999 38076 ft 430 kts 272°
2026-05-04 10:09 25.03622 -120.27484 38066 ft 430 kts 272°
2026-05-04 10:09 25.04491 -120.34008 38065 ft 430 kts 272°
2026-05-04 10:10 25.05356 -120.40536 38078 ft 430 kts 272°
2026-05-04 10:10 25.06211 -120.47009 38070 ft 429 kts 272°
2026-05-04 10:11 25.07065 -120.53517 38068 ft 429 kts 272°
2026-05-04 10:11 25.07917 -120.60027 38066 ft 429 kts 272°
2026-05-04 10:12 25.08766 -120.66535 38064 ft 428 kts 272°
2026-05-04 10:12 25.09606 -120.73000 38072 ft 428 kts 272°
2026-05-04 10:13 25.10449 -120.79511 38064 ft 428 kts 272°
2026-05-04 10:13 25.11290 -120.86022 38070 ft 428 kts 272°
2026-05-04 10:14 25.12127 -120.92531 38068 ft 428 kts 272°
2026-05-04 10:16 25.15415 -121.18317 38070 ft 423 kts 271°
2026-05-04 10:16 25.16228 -121.24755 38077 ft 424 kts 271°
2026-05-04 10:17 25.17033 -121.31146 38069 ft 423 kts 271°
2026-05-04 10:19 25.20235 -121.56803 38070 ft 422 kts 271°
2026-05-04 10:19 25.21029 -121.63219 38070 ft 422 kts 271°
2026-05-04 10:20 25.21820 -121.69642 38084 ft 422 kts 271°
2026-05-04 10:20 25.22607 -121.76047 38072 ft 420 kts 271°
2026-05-04 10:21 25.23390 -121.82449 38072 ft 420 kts 270°
2026-05-04 10:21 25.24164 -121.88796 38072 ft 420 kts 270°
2026-05-04 10:22 25.25326 -121.98380 38069 ft 419 kts 270°
2026-05-04 10:23 25.26097 -122.04763 38072 ft 419 kts 270°
2026-05-04 10:25 25.29156 -122.30322 38072 ft 420 kts 270°
2026-05-04 10:25 25.29910 -122.36680 38072 ft 420 kts 270°
2026-05-04 10:26 25.30667 -122.43092 38080 ft 420 kts 270°
2026-05-04 10:26 25.31421 -122.49497 38072 ft 420 kts 270°
2026-05-04 10:27 25.32171 -122.55897 38075 ft 420 kts 270°
2026-05-04 10:27 25.32914 -122.62258 38079 ft 420 kts 270°
2026-05-04 10:28 25.33658 -122.68660 38075 ft 420 kts 270°
2026-05-04 10:28 25.34401 -122.75071 38078 ft 420 kts 270°
2026-05-04 10:29 25.35141 -122.81478 38069 ft 420 kts 270°
2026-05-04 10:29 25.35873 -122.87845 38077 ft 420 kts 270°
2026-05-04 10:30 25.36607 -122.94247 38071 ft 420 kts 269°
2026-05-04 10:30 25.37337 -123.00645 38066 ft 419 kts 269°
2026-05-04 10:31 25.38064 -123.07045 38085 ft 419 kts 269°
2026-05-04 10:32 25.40581 -123.29395 38083 ft 419 kts 269°
2026-05-04 10:33 25.41292 -123.35761 38077 ft 419 kts 269°
2026-05-04 10:33 25.42004 -123.42164 38077 ft 419 kts 269°
2026-05-04 10:34 25.42714 -123.48567 38082 ft 419 kts 269°
2026-05-04 10:34 25.43420 -123.54974 38078 ft 419 kts 269°
2026-05-04 10:35 25.44120 -123.61338 38079 ft 419 kts 269°
2026-05-04 10:35 25.44820 -123.67744 38080 ft 419 kts 269°
2026-05-04 10:36 25.45519 -123.74160 38083 ft 421 kts 269°
2026-05-04 10:36 25.46218 -123.80605 38079 ft 422 kts 269°
2026-05-04 10:37 25.46910 -123.87001 38087 ft 420 kts 269°
2026-05-04 10:37 25.47602 -123.93411 38084 ft 419 kts 269°
2026-05-04 10:39 25.49977 -124.15693 38091 ft 417 kts 269°
2026-05-04 10:40 25.50649 -124.22062 38100 ft 417 kts 269°
2026-05-04 10:40 25.51319 -124.28413 38088 ft 415 kts 269°
2026-05-04 10:41 25.51983 -124.34754 38091 ft 414 kts 269°
2026-05-04 10:41 25.52643 -124.41084 38091 ft 414 kts 269°
2026-05-04 10:42 25.53296 -124.47381 38093 ft 414 kts 269°
2026-05-04 10:42 25.53951 -124.53712 38113 ft 414 kts 269°
2026-05-04 10:43 25.54604 -124.60041 38100 ft 413 kts 269°
2026-05-04 10:45 25.57174 -124.85274 38095 ft 413 kts 268°
2026-05-04 10:45 25.57811 -124.91599 38096 ft 413 kts 268°
2026-05-04 10:46 25.58445 -124.97913 38100 ft 413 kts 268°
2026-05-04 10:46 25.59073 -125.04195 38100 ft 413 kts 268°
2026-05-04 10:47 25.59702 -125.10528 38098 ft 414 kts 268°
2026-05-04 10:47 25.60330 -125.16865 38097 ft 414 kts 268°
2026-05-04 10:49 25.62803 -125.42120 38099 ft 412 kts 268°
2026-05-04 10:50 25.63414 -125.48430 38103 ft 412 kts 268°
2026-05-04 10:52 25.65832 -125.73689 38098 ft 412 kts 267°
2026-05-04 10:52 25.66431 -125.80009 38102 ft 412 kts 267°
2026-05-04 10:54 25.68791 -126.05250 38102 ft 412 kts 267°
2026-05-04 10:56 25.71108 -126.30494 38102 ft 412 kts 267°
2026-05-04 10:57 25.71681 -126.36816 38103 ft 412 kts 267°
2026-05-04 10:57 25.72252 -126.43135 38102 ft 412 kts 267°
2026-05-04 10:58 25.72816 -126.49419 38101 ft 412 kts 267°
2026-05-04 10:58 25.73381 -126.55745 38130 ft 411 kts 267°
2026-05-04 10:59 25.73941 -126.61997 38106 ft 405 kts 267°
2026-05-04 10:59 25.74491 -126.68209 38098 ft 404 kts 267°
2026-05-04 11:00 25.75036 -126.74421 38108 ft 404 kts 267°
2026-05-04 11:02 25.77176 -126.99040 38102 ft 401 kts 267°
2026-05-04 11:05 25.81044 -127.44804 38105 ft 397 kts 266°
2026-05-04 11:06 25.81549 -127.50916 38103 ft 398 kts 266°
2026-05-04 11:06 25.82050 -127.57006 38102 ft 398 kts 266°
2026-05-04 11:10 25.85506 -127.99870 38104 ft 401 kts 265°
2026-05-04 11:12 25.87442 -128.24613 38111 ft 404 kts 265°
2026-05-04 11:12 25.87919 -128.30793 38105 ft 404 kts 265°
2026-05-04 11:13 25.88396 -128.37009 38108 ft 404 kts 265°
2026-05-04 11:13 25.88871 -128.43226 38100 ft 404 kts 265°
2026-05-04 11:14 25.89264 -128.48395 38132 ft 404 kts 265°
2026-05-04 11:16 25.91131 -128.73361 38114 ft 408 kts 265°
2026-05-04 11:16 25.91595 -128.79642 38111 ft 408 kts 265°
2026-05-04 11:17 25.92056 -128.85922 38119 ft 408 kts 265°
2026-05-04 11:19 25.93874 -129.11093 38129 ft 410 kts 265°
2026-05-04 11:19 25.94323 -129.17418 38115 ft 411 kts 265°
2026-05-04 11:20 25.94772 -129.23759 38119 ft 412 kts 265°
2026-05-04 11:20 25.95218 -129.30098 38119 ft 412 kts 265°
2026-05-04 11:22 25.96974 -129.55472 38122 ft 413 kts 266°
2026-05-04 11:23 25.97408 -129.61840 38121 ft 413 kts 266°
2026-05-04 11:25 25.98900 -129.84095 38131 ft 414 kts 266°
2026-05-04 11:25 25.99323 -129.90488 38119 ft 414 kts 266°
2026-05-04 11:27 25.96933 -130.18464 38129 ft 404 kts 254°
2026-05-04 11:28 25.95910 -130.24562 38125 ft 404 kts 254°
2026-05-04 11:28 25.94891 -130.30710 38128 ft 405 kts 254°
2026-05-04 11:29 25.93870 -130.36877 38121 ft 406 kts 254°
2026-05-04 11:29 25.92845 -130.43056 38123 ft 406 kts 254°
2026-05-04 11:33 25.85575 -130.86326 38126 ft 410 kts 255°
2026-05-04 11:33 25.84518 -130.92550 38138 ft 410 kts 255°
2026-05-04 11:34 25.83454 -130.98792 38125 ft 413 kts 255°
2026-05-04 11:34 25.82385 -131.05059 38128 ft 413 kts 255°
2026-05-04 11:35 25.81320 -131.11281 38126 ft 413 kts 255°
2026-05-04 11:35 25.80244 -131.17549 38129 ft 414 kts 255°
2026-05-04 11:36 25.79162 -131.23836 38128 ft 415 kts 255°
2026-05-04 11:36 25.78075 -131.30136 38138 ft 415 kts 255°
2026-05-04 11:37 25.76993 -131.36389 38137 ft 416 kts 255°
2026-05-04 11:37 25.75895 -131.42715 38128 ft 419 kts 255°
2026-05-04 11:38 25.74789 -131.49069 38135 ft 420 kts 255°
2026-05-04 11:38 25.73681 -131.55428 38141 ft 420 kts 255°
2026-05-04 11:39 25.72565 -131.61802 38141 ft 422 kts 256°
2026-05-04 11:41 25.68620 -131.84224 38133 ft 426 kts 256°
2026-05-04 11:41 25.67482 -131.90651 38137 ft 428 kts 256°
2026-05-04 11:42 25.66335 -131.97119 38137 ft 428 kts 256°
2026-05-04 11:42 25.65181 -132.03599 38133 ft 430 kts 257°
2026-05-04 11:43 25.64018 -132.10121 38139 ft 435 kts 257°
2026-05-04 11:43 25.62839 -132.16708 38136 ft 440 kts 257°
2026-05-04 11:44 25.61645 -132.23362 38138 ft 441 kts 257°
2026-05-04 11:44 25.60443 -132.30041 38136 ft 442 kts 257°
2026-05-04 11:45 25.59236 -132.36738 38138 ft 442 kts 257°
2026-05-04 11:45 25.58033 -132.43383 38142 ft 443 kts 258°
2026-05-04 11:46 25.56816 -132.50095 38139 ft 446 kts 258°
2026-05-04 11:46 25.55590 -132.56836 38141 ft 446 kts 258°
2026-05-04 11:47 25.54359 -132.63580 38145 ft 447 kts 259°
2026-05-04 11:47 25.53123 -132.70344 38148 ft 449 kts 259°
2026-05-04 11:48 25.51878 -132.77138 38132 ft 450 kts 259°
2026-05-04 11:48 25.50639 -132.83878 38142 ft 450 kts 259°
2026-05-04 11:49 25.49386 -132.90676 38134 ft 450 kts 259°
2026-05-04 11:49 25.48131 -132.97465 38131 ft 451 kts 258°
2026-05-04 11:50 25.46870 -133.04266 38153 ft 451 kts 259°
2026-05-04 11:50 25.45603 -133.11085 38141 ft 453 kts 259°
2026-05-04 11:51 25.44338 -133.17873 38131 ft 453 kts 259°
2026-05-04 11:51 25.43061 -133.24706 38141 ft 454 kts 260°
2026-05-04 11:52 25.41777 -133.31560 38149 ft 456 kts 260°
2026-05-04 11:52 25.40486 -133.38436 38149 ft 457 kts 260°
2026-05-04 11:53 25.39183 -133.45352 38140 ft 461 kts 261°
2026-05-04 11:53 25.37871 -133.52301 38147 ft 463 kts 261°
2026-05-04 11:55 25.32572 -133.80161 38146 ft 464 kts 262°
2026-05-04 11:56 25.31236 -133.87140 38150 ft 464 kts 262°
2026-05-04 11:56 25.29895 -133.94128 38151 ft 465 kts 262°
2026-05-04 11:57 25.28560 -134.01066 38149 ft 465 kts 262°
2026-05-04 11:57 25.27212 -134.08053 38153 ft 464 kts 263°
2026-05-04 11:58 25.25862 -134.15027 38153 ft 464 kts 263°
2026-05-04 11:58 25.24517 -134.21962 38152 ft 464 kts 263°
2026-05-04 11:59 25.23163 -134.28926 38153 ft 463 kts 263°
2026-05-04 11:59 25.21807 -134.35874 38156 ft 463 kts 263°
2026-05-04 12:00 25.20450 -134.42818 38123 ft 462 kts 263°
2026-05-04 12:00 25.19092 -134.49732 38156 ft 459 kts 263°
2026-05-04 12:01 25.17749 -134.56566 38152 ft 458 kts 263°
2026-05-04 12:02 25.13026 -134.80465 38154 ft 453 kts 263°
2026-05-04 12:03 25.11678 -134.87252 38157 ft 453 kts 263°
2026-05-04 12:03 25.10334 -134.93997 38157 ft 453 kts 263°
2026-05-04 12:04 25.08979 -135.00778 38157 ft 453 kts 262°
2026-05-04 12:04 25.07624 -135.07540 38157 ft 451 kts 262°
2026-05-04 12:05 25.06269 -135.14289 38146 ft 450 kts 262°
2026-05-04 12:05 25.04916 -135.21012 38155 ft 448 kts 262°
2026-05-04 12:06 25.03564 -135.27708 38155 ft 446 kts 262°
2026-05-04 12:06 25.02220 -135.34352 38162 ft 446 kts 262°
2026-05-04 12:07 25.00868 -135.41023 38155 ft 446 kts 261°
2026-05-04 12:07 24.99512 -135.47700 38157 ft 446 kts 261°
2026-05-04 12:08 24.98152 -135.54375 38153 ft 446 kts 261°
2026-05-04 12:08 24.96801 -135.60988 38150 ft 445 kts 261°
2026-05-04 12:09 24.95436 -135.67656 38154 ft 446 kts 261°
2026-05-04 12:09 24.94068 -135.74325 38157 ft 446 kts 261°
2026-05-04 12:10 24.92697 -135.80992 38158 ft 447 kts 261°
2026-05-04 12:10 24.91328 -135.87630 38157 ft 447 kts 261°
2026-05-04 12:11 24.89949 -135.94302 38159 ft 446 kts 260°
2026-05-04 12:11 24.88568 -136.00966 38157 ft 447 kts 260°
2026-05-04 12:12 24.87181 -136.07648 38157 ft 448 kts 260°
2026-05-04 12:12 24.85788 -136.14337 38157 ft 448 kts 260°
2026-05-04 12:14 24.80182 -136.41106 38163 ft 449 kts 259°
2026-05-04 12:15 24.78770 -136.47814 38163 ft 450 kts 259°
2026-05-04 12:15 24.77353 -136.54527 38163 ft 450 kts 259°
2026-05-04 12:16 24.75942 -136.61194 38162 ft 451 kts 259°
2026-05-04 12:16 24.74513 -136.67930 38161 ft 452 kts 259°
2026-05-04 12:17 24.73084 -136.74654 38164 ft 451 kts 259°
2026-05-04 12:17 24.71655 -136.81357 38162 ft 450 kts 259°
2026-05-04 12:18 24.70233 -136.88011 38165 ft 449 kts 259°
2026-05-04 12:18 24.68799 -136.94712 38162 ft 450 kts 259°
2026-05-04 12:19 24.67363 -137.01405 38165 ft 451 kts 259°
2026-05-04 12:19 24.65921 -137.08114 38165 ft 451 kts 259°
2026-05-04 12:20 24.64474 -137.14824 38164 ft 450 kts 258°
2026-05-04 12:20 24.63040 -137.21458 38167 ft 449 kts 258°
2026-05-04 12:21 24.61593 -137.28143 38165 ft 450 kts 258°
2026-05-04 12:21 24.60142 -137.34828 38165 ft 450 kts 258°
2026-05-04 12:22 24.58686 -137.41525 38169 ft 451 kts 258°
2026-05-04 12:22 24.57233 -137.48191 38167 ft 452 kts 258°
2026-05-04 12:23 24.55767 -137.54896 38160 ft 450 kts 258°
2026-05-04 12:23 24.54304 -137.61576 38158 ft 449 kts 258°
2026-05-04 12:24 24.52839 -137.68252 38161 ft 450 kts 258°
2026-05-04 12:24 24.51377 -137.74896 38160 ft 450 kts 258°
2026-05-04 12:25 24.49904 -137.81579 38162 ft 450 kts 258°
2026-05-04 12:25 24.48426 -137.88269 38162 ft 451 kts 258°
2026-05-04 12:26 24.46943 -137.94964 38171 ft 450 kts 258°
2026-05-04 12:26 24.45464 -138.01625 38173 ft 448 kts 258°
2026-05-04 12:27 24.43994 -138.08238 38170 ft 449 kts 258°
2026-05-04 12:27 24.42511 -138.14890 38172 ft 449 kts 258°
2026-05-04 12:28 24.41023 -138.21552 38165 ft 449 kts 258°
2026-05-04 12:28 24.39531 -138.28217 38169 ft 450 kts 258°
2026-05-04 12:29 24.38044 -138.34841 38169 ft 450 kts 258°
2026-05-04 12:29 24.36545 -138.41506 38171 ft 450 kts 258°
2026-05-04 12:30 24.35043 -138.48173 38159 ft 451 kts 257°
2026-05-04 12:30 24.33535 -138.54852 38166 ft 451 kts 257°
2026-05-04 12:31 24.32032 -138.61489 38164 ft 451 kts 257°
2026-05-04 12:31 24.30516 -138.68171 38170 ft 451 kts 257°
2026-05-04 12:32 24.28239 -138.78184 38161 ft 451 kts 257°
2026-05-04 12:33 24.26729 -138.84800 38172 ft 449 kts 257°
2026-05-04 12:33 24.25212 -138.91440 38173 ft 449 kts 257°
2026-05-04 12:34 24.23695 -138.98064 38165 ft 449 kts 257°
2026-05-04 12:34 24.22173 -139.04695 38162 ft 449 kts 257°
2026-05-04 12:35 24.20649 -139.11321 38165 ft 449 kts 257°
2026-05-04 12:35 24.19119 -139.17960 38165 ft 450 kts 257°
2026-05-04 12:36 24.17590 -139.24578 38166 ft 448 kts 257°
2026-05-04 12:36 24.16058 -139.31196 38171 ft 446 kts 257°
2026-05-04 12:37 24.14543 -139.37728 38164 ft 447 kts 257°
2026-05-04 12:37 24.13005 -139.44343 38168 ft 448 kts 257°
2026-05-04 12:38 24.11465 -139.50956 38164 ft 448 kts 257°
2026-05-04 12:38 24.09924 -139.57558 38167 ft 448 kts 257°
2026-05-04 12:39 24.08639 -139.63052 38170 ft 448 kts 257°
2026-05-04 12:39 24.06840 -139.70727 38166 ft 446 kts 257°
2026-05-04 12:40 24.05297 -139.77297 38166 ft 446 kts 257°
2026-05-04 12:40 24.04010 -139.82767 38165 ft 446 kts 257°
2026-05-04 12:41 24.02197 -139.90458 38167 ft 447 kts 257°
2026-05-04 12:41 24.00904 -139.95930 38167 ft 447 kts 257°
2026-05-04 12:42 23.99379 -140.02519 38160 ft 447 kts 259°
2026-05-04 12:42 23.98259 -140.09153 38155 ft 447 kts 261°
2026-05-04 12:43 23.97255 -140.15843 38165 ft 445 kts 261°
2026-05-04 12:43 23.96197 -140.22512 38166 ft 445 kts 261°
2026-05-04 12:44 23.95091 -140.29178 38165 ft 445 kts 261°
2026-05-04 12:44 23.93970 -140.35839 38165 ft 445 kts 260°
2026-05-04 12:45 23.92857 -140.42436 38164 ft 445 kts 260°
2026-05-04 12:45 23.91730 -140.49109 38165 ft 446 kts 260°
2026-05-04 12:46 23.90603 -140.55772 38165 ft 446 kts 260°
2026-05-04 12:46 23.89472 -140.62440 38156 ft 446 kts 260°
2026-05-04 12:47 23.88348 -140.69049 38163 ft 445 kts 260°
2026-05-04 12:47 23.87214 -140.75702 38165 ft 445 kts 260°
2026-05-04 12:48 23.86077 -140.82353 38162 ft 445 kts 260°
2026-05-04 12:48 23.84936 -140.89005 38162 ft 445 kts 260°
2026-05-04 12:49 23.83793 -140.95661 38162 ft 446 kts 260°
2026-05-04 12:49 23.82651 -141.02282 38165 ft 446 kts 260°
2026-05-04 12:50 23.81500 -141.08941 38162 ft 446 kts 260°
2026-05-04 12:50 23.80348 -141.15592 38159 ft 446 kts 260°
2026-05-04 12:51 23.79194 -141.22233 38159 ft 445 kts 260°
2026-05-04 12:51 23.78046 -141.28827 38158 ft 445 kts 260°
2026-05-04 12:52 23.76887 -141.35461 38159 ft 445 kts 260°
2026-05-04 12:52 23.75724 -141.42104 38159 ft 446 kts 260°
2026-05-04 12:53 23.74564 -141.48709 38156 ft 446 kts 260°
2026-05-04 12:53 23.73396 -141.55349 38157 ft 446 kts 260°
2026-05-04 12:54 23.72220 -141.62007 38157 ft 446 kts 260°
2026-05-04 12:54 23.71045 -141.68652 38151 ft 446 kts 260°
2026-05-04 12:55 23.69868 -141.75283 38157 ft 445 kts 260°
2026-05-04 12:55 23.68698 -141.81864 38155 ft 445 kts 260°
2026-05-04 12:56 23.67514 -141.88502 38154 ft 446 kts 260°
2026-05-04 12:56 23.66326 -141.95149 38155 ft 446 kts 260°
2026-05-04 12:57 23.65135 -142.01793 38158 ft 446 kts 260°
2026-05-04 12:57 23.63952 -142.08379 38157 ft 446 kts 260°
2026-05-04 12:58 23.62755 -142.15025 38152 ft 447 kts 260°
2026-05-04 12:58 23.61554 -142.21672 38146 ft 447 kts 259°
2026-05-04 12:59 23.60352 -142.28313 38154 ft 446 kts 259°
2026-05-04 12:59 23.59155 -142.34908 38150 ft 446 kts 259°
2026-05-04 13:00 23.57947 -142.41544 38151 ft 446 kts 259°
2026-05-04 13:00 23.56736 -142.48183 38153 ft 446 kts 259°
2026-05-04 13:01 23.55522 -142.54820 38154 ft 446 kts 259°
2026-05-04 13:01 23.54313 -142.61416 38152 ft 447 kts 259°
2026-05-04 13:02 23.53093 -142.68054 38152 ft 447 kts 259°
2026-05-04 13:02 23.51868 -142.74703 38154 ft 447 kts 259°
2026-05-04 13:03 23.50642 -142.81337 38154 ft 447 kts 259°
2026-05-04 13:03 23.49413 -142.87974 38151 ft 447 kts 259°
2026-05-04 13:04 23.48183 -142.94603 38150 ft 447 kts 259°
2026-05-04 13:04 23.46956 -143.01192 38153 ft 447 kts 259°
2026-05-04 13:05 23.45719 -143.07826 38150 ft 447 kts 259°
2026-05-04 13:05 23.44478 -143.14462 38152 ft 447 kts 259°
2026-05-04 13:06 23.43234 -143.21098 38148 ft 447 kts 259°
2026-05-04 13:06 23.41987 -143.27733 38153 ft 448 kts 259°
2026-05-04 13:07 23.40743 -143.34336 38155 ft 448 kts 259°
2026-05-04 13:07 23.39488 -143.40980 38148 ft 448 kts 259°
2026-05-04 13:08 23.38232 -143.47618 38147 ft 448 kts 259°
2026-05-04 13:08 23.36971 -143.54262 38144 ft 448 kts 259°
2026-05-04 13:09 23.35706 -143.60913 38144 ft 448 kts 259°
2026-05-04 13:09 23.34440 -143.67555 38145 ft 448 kts 259°
2026-05-04 13:10 23.33180 -143.74147 38153 ft 448 kts 259°
2026-05-04 13:10 23.31905 -143.80800 38152 ft 449 kts 259°
2026-05-04 13:11 23.30629 -143.87447 38134 ft 449 kts 259°
2026-05-04 13:11 23.29356 -143.94056 38145 ft 448 kts 259°
2026-05-04 13:12 23.28075 -144.00699 38146 ft 448 kts 259°
2026-05-04 13:12 23.26791 -144.07338 38149 ft 449 kts 259°
2026-05-04 13:13 23.25503 -144.13980 38147 ft 449 kts 259°
2026-05-04 13:13 23.24211 -144.20631 38148 ft 449 kts 259°
2026-05-04 13:14 23.22928 -144.27217 38150 ft 449 kts 259°
2026-05-04 13:14 23.21628 -144.33873 38146 ft 450 kts 259°
2026-05-04 13:15 23.20327 -144.40521 38145 ft 450 kts 259°
2026-05-04 13:15 23.19022 -144.47171 38144 ft 450 kts 259°
2026-05-04 13:16 23.17724 -144.53775 38143 ft 449 kts 259°
2026-05-04 13:16 23.16416 -144.60412 38140 ft 449 kts 259°
2026-05-04 13:17 23.15103 -144.67058 38142 ft 450 kts 259°
2026-05-04 13:17 23.13789 -144.73698 38147 ft 450 kts 259°
2026-05-04 13:18 23.12471 -144.80337 38142 ft 450 kts 259°
2026-05-04 13:18 23.11157 -144.86944 38148 ft 450 kts 259°
2026-05-04 13:19 23.09832 -144.93592 38151 ft 450 kts 259°
2026-05-04 13:19 23.08505 -145.00232 38153 ft 450 kts 259°
2026-05-04 13:20 23.07172 -145.06888 38149 ft 450 kts 259°
2026-05-04 13:20 23.05848 -145.13483 38148 ft 450 kts 259°
2026-05-04 13:21 23.04513 -145.20118 38146 ft 450 kts 259°
2026-05-04 13:21 23.03173 -145.26764 38148 ft 450 kts 259°
2026-05-04 13:22 23.01830 -145.33410 38149 ft 451 kts 259°
2026-05-04 13:22 23.00484 -145.40056 38145 ft 451 kts 259°
2026-05-04 13:23 22.99142 -145.46663 38148 ft 451 kts 258°
2026-05-04 13:23 22.97790 -145.53308 38149 ft 451 kts 259°
2026-05-04 13:24 22.96435 -145.59951 38137 ft 451 kts 258°
2026-05-04 13:24 22.95075 -145.66607 38146 ft 451 kts 258°
2026-05-04 13:25 22.93043 -145.76524 38148 ft 451 kts 258°
2026-05-04 13:25 22.91678 -145.83164 38149 ft 451 kts 258°
2026-05-04 13:26 22.90309 -145.89809 38149 ft 451 kts 258°
2026-05-04 13:26 22.88939 -145.96446 38143 ft 451 kts 258°
2026-05-04 13:27 22.87565 -146.03087 38147 ft 451 kts 258°
2026-05-04 13:27 22.86188 -146.09724 38145 ft 451 kts 258°
2026-05-04 13:28 22.84818 -146.16320 38147 ft 451 kts 258°
2026-05-04 13:28 22.83435 -146.22960 38133 ft 451 kts 258°
2026-05-04 13:29 22.82049 -146.29601 38146 ft 451 kts 258°
2026-05-04 13:29 22.80661 -146.36233 38149 ft 451 kts 258°
2026-05-04 13:30 22.79280 -146.42825 38149 ft 451 kts 258°
2026-05-04 13:30 22.77887 -146.49452 38149 ft 451 kts 258°
2026-05-04 13:31 22.76490 -146.56088 38149 ft 451 kts 258°
2026-05-04 13:31 22.75092 -146.62715 38151 ft 452 kts 258°
2026-05-04 13:32 22.73687 -146.69357 38150 ft 452 kts 258°
2026-05-04 13:32 22.72290 -146.75949 38150 ft 452 kts 258°
2026-05-04 13:33 22.70882 -146.82580 38140 ft 452 kts 258°
2026-05-04 13:33 22.69469 -146.89218 38149 ft 452 kts 258°
2026-05-04 13:34 22.68054 -146.95854 38148 ft 452 kts 258°
2026-05-04 13:34 22.66637 -147.02482 38149 ft 452 kts 258°
2026-05-04 13:35 22.64515 -147.12387 38149 ft 452 kts 258°
2026-05-04 13:36 22.63090 -147.19016 38150 ft 452 kts 258°
2026-05-04 13:36 22.61664 -147.25638 38148 ft 452 kts 258°
2026-05-04 13:37 22.60234 -147.32265 38149 ft 452 kts 258°
2026-05-04 13:37 22.58801 -147.38890 38156 ft 452 kts 258°
2026-05-04 13:38 22.57365 -147.45518 38142 ft 452 kts 258°
2026-05-04 13:38 22.55938 -147.52091 38152 ft 452 kts 258°
2026-05-04 13:39 22.54495 -147.58721 38151 ft 452 kts 258°
2026-05-04 13:39 22.53051 -147.65342 38146 ft 452 kts 258°
2026-05-04 13:40 22.51604 -147.71967 38151 ft 452 kts 258°
2026-05-04 13:40 22.50155 -147.78582 38150 ft 452 kts 258°
2026-05-04 13:41 22.48704 -147.85195 38148 ft 452 kts 258°
2026-05-04 13:41 22.47260 -147.91762 38152 ft 452 kts 258°
2026-05-04 13:42 22.45075 -148.01674 38144 ft 451 kts 258°
2026-05-04 13:42 22.43617 -148.08269 38144 ft 451 kts 258°
2026-05-04 13:43 22.42154 -148.14878 38150 ft 452 kts 258°
2026-05-04 13:43 22.40688 -148.21485 38148 ft 452 kts 257°
2026-05-04 13:44 22.39230 -148.28040 38146 ft 451 kts 257°
2026-05-04 13:44 22.37760 -148.34639 38150 ft 451 kts 257°
2026-05-04 13:45 22.36288 -148.41230 38153 ft 451 kts 257°
2026-05-04 13:45 22.34814 -148.47820 38149 ft 451 kts 257°
2026-05-04 13:46 22.33347 -148.54363 38145 ft 451 kts 257°
2026-05-04 13:46 22.31868 -148.60945 38148 ft 451 kts 257°
2026-05-04 13:47 22.30388 -148.67522 38153 ft 450 kts 257°
2026-05-04 13:47 22.28914 -148.74059 38141 ft 451 kts 257°
2026-05-04 13:48 22.27428 -148.80635 38148 ft 451 kts 257°
2026-05-04 13:48 22.25939 -148.87214 38151 ft 451 kts 257°
2026-05-04 13:49 22.24445 -148.93796 38142 ft 451 kts 257°
2026-05-04 13:49 22.22949 -149.00376 38142 ft 451 kts 257°
2026-05-04 13:50 22.21462 -149.06907 38144 ft 451 kts 257°
2026-05-04 13:50 22.19963 -149.13474 38148 ft 450 kts 257°
2026-05-04 13:51 22.18463 -149.20035 38145 ft 450 kts 257°
2026-05-04 13:51 22.16960 -149.26594 38142 ft 450 kts 257°
2026-05-04 13:52 22.14711 -149.36384 38137 ft 450 kts 257°
2026-05-04 13:53 22.13204 -149.42930 38143 ft 450 kts 257°
2026-05-04 13:53 22.11693 -149.49480 38140 ft 450 kts 257°
2026-05-04 13:54 22.09433 -149.59256 38153 ft 449 kts 257°
2026-05-04 13:55 22.07161 -149.69050 38144 ft 449 kts 257°
2026-05-04 13:55 22.04885 -149.78836 38150 ft 449 kts 257°
2026-05-04 13:56 22.03365 -149.85358 38138 ft 448 kts 257°
2026-05-04 13:57 22.01082 -149.95125 38152 ft 448 kts 257°
2026-05-04 13:58 21.97682 -150.08004 38150 ft 449 kts 252°
2026-05-04 13:58 21.94631 -150.17565 38143 ft 449 kts 252°
2026-05-04 13:59 21.92652 -150.23957 38134 ft 449 kts 253°
2026-05-04 14:00 21.89731 -150.33536 38138 ft 449 kts 253°
2026-05-04 14:00 21.86818 -150.43072 38143 ft 449 kts 253°
2026-05-04 14:01 21.84864 -150.49450 38143 ft 448 kts 253°
2026-05-04 14:02 21.81933 -150.58998 38143 ft 449 kts 253°
2026-05-04 14:02 21.79972 -150.65375 38141 ft 449 kts 253°
2026-05-04 14:03 21.78008 -150.71750 38140 ft 449 kts 253°
2026-05-04 14:03 21.76051 -150.78091 38139 ft 449 kts 252°
2026-05-04 14:04 21.73098 -150.87644 38142 ft 449 kts 252°
2026-05-04 14:04 21.71126 -150.94012 38143 ft 449 kts 252°
2026-05-04 14:05 21.68163 -151.03562 38122 ft 448 kts 252°
2026-05-04 14:06 21.66202 -151.09872 38123 ft 448 kts 252°
2026-05-04 14:06 21.64224 -151.16228 38129 ft 448 kts 252°
2026-05-04 14:07 21.62244 -151.22578 38129 ft 448 kts 252°
2026-05-04 14:07 21.60274 -151.28887 38130 ft 448 kts 252°
2026-05-04 14:08 21.58290 -151.35232 38129 ft 448 kts 252°
2026-05-04 14:08 21.56626 -151.40544 38129 ft 448 kts 252°
2026-05-04 14:09 21.53158 -151.49818 38128 ft 449 kts 245°
2026-05-04 14:10 21.48858 -151.58779 38127 ft 450 kts 244°
2026-05-04 14:10 21.45950 -151.64728 38128 ft 450 kts 244°
2026-05-04 14:11 21.43065 -151.70647 38129 ft 450 kts 244°
2026-05-04 14:11 21.38716 -151.79584 38127 ft 450 kts 244°
2026-05-04 14:12 21.35816 -151.85536 38124 ft 450 kts 244°
2026-05-04 14:13 21.31469 -151.94448 38124 ft 450 kts 244°
2026-05-04 14:13 21.28583 -152.00355 38124 ft 450 kts 244°
2026-05-04 14:14 21.25677 -152.06295 38121 ft 450 kts 244°
2026-05-04 14:14 21.21315 -152.15200 38121 ft 449 kts 244°
2026-05-04 14:15 21.15496 -152.27058 38120 ft 449 kts 244°
2026-05-04 14:16 21.11149 -152.35898 38118 ft 449 kts 244°
2026-05-04 14:17 21.06772 -152.44786 38113 ft 449 kts 244°
2026-05-04 14:18 21.02401 -152.53646 38105 ft 449 kts 244°
2026-05-04 14:19 20.96579 -152.65425 38112 ft 449 kts 244°
2026-05-04 14:19 20.93662 -152.71319 38114 ft 449 kts 244°
2026-05-04 14:20 20.90740 -152.77215 38112 ft 449 kts 244°
2026-05-04 14:20 20.87828 -152.83084 38111 ft 449 kts 244°
2026-05-04 14:21 20.83435 -152.91926 38111 ft 449 kts 244°
2026-05-04 14:21 20.80540 -152.97840 38097 ft 448 kts 246°
2026-05-04 14:22 20.78600 -153.04120 38109 ft 444 kts 257°
2026-05-04 14:22 20.77260 -153.10564 38108 ft 443 kts 259°
2026-05-04 14:23 20.75393 -153.20220 38110 ft 444 kts 259°
2026-05-04 14:24 20.74121 -153.26620 38108 ft 444 kts 258°
2026-05-04 14:24 20.72825 -153.33046 38108 ft 444 kts 258°
2026-05-04 14:25 20.71513 -153.39516 38110 ft 444 kts 258°
2026-05-04 14:25 20.69543 -153.49221 38108 ft 444 kts 258°
2026-05-04 14:26 20.68232 -153.55670 38107 ft 445 kts 258°
2026-05-04 14:26 20.66919 -153.62120 38105 ft 445 kts 258°
2026-05-04 14:27 20.65611 -153.68528 38105 ft 445 kts 258°
2026-05-04 14:27 20.64293 -153.74975 38108 ft 445 kts 258°
2026-05-04 14:28 20.62969 -153.81433 38105 ft 444 kts 258°
2026-05-04 14:28 20.61647 -153.87871 38105 ft 444 kts 258°
2026-05-04 14:29 20.59005 -154.00695 38102 ft 444 kts 258°
2026-05-04 14:30 20.57675 -154.07135 38102 ft 444 kts 258°
2026-05-04 14:31 20.55675 -154.16790 38105 ft 445 kts 258°
2026-05-04 14:32 20.53006 -154.29633 38102 ft 445 kts 258°
2026-05-04 14:32 20.51663 -154.36077 38105 ft 445 kts 258°
2026-05-04 14:33 20.50319 -154.42514 38102 ft 445 kts 258°
2026-05-04 14:33 20.48970 -154.48963 38102 ft 445 kts 258°
2026-05-04 14:34 20.47627 -154.55367 38102 ft 445 kts 258°
2026-05-04 14:34 20.46275 -154.61805 38101 ft 444 kts 258°
2026-05-04 14:35 20.44923 -154.68233 38100 ft 444 kts 258°
2026-05-04 14:35 20.43570 -154.74647 38099 ft 443 kts 258°
2026-05-04 14:36 20.42217 -154.81054 38102 ft 443 kts 258°
2026-05-04 14:36 20.40859 -154.87469 38102 ft 443 kts 258°
2026-05-04 14:37 20.39507 -154.93846 38097 ft 443 kts 258°
2026-05-04 14:37 20.38146 -155.00253 38103 ft 444 kts 258°
2026-05-04 14:38 20.36779 -155.06677 38102 ft 444 kts 258°
2026-05-04 14:38 20.35411 -155.13100 38102 ft 444 kts 258°
2026-05-04 14:39 20.34047 -155.19487 38103 ft 444 kts 258°
2026-05-04 14:39 20.32675 -155.25901 38104 ft 444 kts 258°
2026-05-04 14:40 20.32039 -155.32430 38105 ft 444 kts 271°
2026-05-04 14:40 20.32355 -155.35715 38105 ft 446 kts 279°
2026-05-04 14:40 20.33958 -155.42104 38110 ft 448 kts 285°
2026-05-04 14:41 20.35849 -155.48431 38108 ft 448 kts 285°
2026-05-04 14:42 20.39605 -155.61054 38102 ft 448 kts 284°
2026-05-04 14:42 20.41295 -155.67438 38097 ft 448 kts 283°
2026-05-04 14:43 20.42960 -155.73842 38097 ft 448 kts 283°
2026-05-04 14:43 20.44646 -155.80241 38097 ft 448 kts 284°
2026-05-04 14:44 20.46332 -155.86595 38097 ft 448 kts 284°
2026-05-04 14:44 20.48040 -155.92984 38097 ft 448 kts 284°
2026-05-04 14:45 20.49798 -155.99329 37382 ft 444 kts 284°
2026-05-04 14:45 20.50682 -156.02504 36308 ft 452 kts 285°
2026-05-04 14:45 20.51585 -156.05756 35303 ft 459 kts 285°
2026-05-04 14:46 20.52492 -156.09034 34402 ft 464 kts 286°
2026-05-04 14:46 20.53409 -156.12354 33438 ft 468 kts 286°
2026-05-04 14:46 20.54316 -156.15642 32512 ft 470 kts 286°
2026-05-04 14:46 20.55242 -156.19007 31567 ft 473 kts 286°
2026-05-04 14:47 20.56172 -156.22386 30591 ft 477 kts 287°
2026-05-04 14:47 20.57111 -156.25804 29479 ft 482 kts 287°
2026-05-04 14:47 20.58052 -156.29231 28672 ft 479 kts 287°
2026-05-04 14:47 20.58982 -156.32622 27982 ft 474 kts 286°
2026-05-04 14:48 20.59904 -156.35987 27248 ft 470 kts 286°
2026-05-04 14:48 20.60988 -156.39261 26523 ft 466 kts 294°
2026-05-04 14:48 20.62446 -156.42341 25803 ft 463 kts 298°
2026-05-04 14:48 20.63987 -156.45353 25091 ft 461 kts 298°
2026-05-04 14:49 20.65513 -156.48293 24395 ft 458 kts 298°
2026-05-04 14:49 20.67057 -156.51263 23685 ft 455 kts 298°
2026-05-04 14:49 20.68335 -156.54338 22880 ft 452 kts 287°
2026-05-04 14:49 20.69084 -156.57577 22148 ft 447 kts 282°
2026-05-04 14:50 20.69694 -156.60807 21447 ft 442 kts 281°
2026-05-04 14:50 20.70289 -156.64018 20741 ft 438 kts 281°
2026-05-04 14:50 20.70880 -156.67193 20036 ft 435 kts 282°
2026-05-04 14:50 20.71472 -156.70352 19319 ft 432 kts 282°
2026-05-04 14:51 20.72061 -156.73490 18605 ft 429 kts 282°
2026-05-04 14:51 20.72647 -156.76609 17801 ft 427 kts 282°
2026-05-04 14:51 20.73221 -156.79659 17072 ft 423 kts 281°
2026-05-04 14:51 20.73798 -156.82727 16340 ft 419 kts 281°
2026-05-04 14:52 20.74368 -156.85761 15633 ft 415 kts 281°
2026-05-04 14:52 20.74935 -156.88780 14911 ft 412 kts 281°
2026-05-04 14:52 20.75496 -156.91767 14193 ft 410 kts 280°
2026-05-04 14:52 20.76055 -156.94753 13419 ft 408 kts 281°
2026-05-04 14:53 20.76608 -156.97708 12668 ft 404 kts 281°
2026-05-04 14:53 20.77252 -157.00613 11962 ft 400 kts 283°
2026-05-04 14:53 20.77951 -157.03464 11308 ft 395 kts 283°
2026-05-04 14:53 20.78630 -157.06244 11157 ft 375 kts 283°
2026-05-04 14:54 20.79254 -157.08827 11047 ft 342 kts 283°
2026-05-04 14:54 20.79817 -157.11181 10969 ft 313 kts 283°
2026-05-04 14:54 20.80336 -157.13364 10869 ft 297 kts 283°
2026-05-04 14:54 20.80827 -157.15446 10727 ft 288 kts 282°
2026-05-04 14:55 20.81306 -157.17487 10604 ft 279 kts 282°
2026-05-04 14:55 20.81776 -157.19497 10466 ft 279 kts 282°
2026-05-04 14:55 20.82245 -157.21508 10126 ft 279 kts 283°
2026-05-04 14:55 20.82720 -157.23539 9782 ft 287 kts 283°
2026-05-04 14:56 20.83214 -157.25646 9612 ft 296 kts 283°
2026-05-04 14:56 20.83716 -157.27774 9271 ft 294 kts 282°
2026-05-04 14:56 20.84213 -157.29901 8761 ft 295 kts 283°
2026-05-04 14:56 20.84778 -157.31998 8354 ft 293 kts 290°
2026-05-04 14:57 20.85637 -157.33927 8046 ft 292 kts 297°
2026-05-04 14:57 20.86604 -157.35844 7710 ft 293 kts 297°
2026-05-04 14:57 20.87578 -157.37755 7371 ft 292 kts 297°
2026-05-04 14:57 20.88549 -157.39663 7038 ft 292 kts 297°
2026-05-04 14:58 20.89506 -157.41555 6715 ft 288 kts 297°
2026-05-04 14:58 20.90453 -157.43429 6357 ft 285 kts 297°
2026-05-04 14:58 20.91392 -157.45292 6040 ft 284 kts 297°
2026-05-04 14:58 20.92313 -157.47121 5724 ft 281 kts 298°
2026-05-04 14:59 20.93327 -157.48894 5413 ft 278 kts 309°
2026-05-04 14:59 20.94602 -157.50381 5283 ft 265 kts 315°
2026-05-04 14:59 20.97101 -157.53017 5059 ft 240 kts 316°
2026-05-04 15:00 20.98274 -157.54254 4912 ft 234 kts 316°
2026-05-04 15:00 20.99434 -157.55480 4684 ft 235 kts 317°
2026-05-04 15:00 21.00601 -157.56714 4455 ft 237 kts 317°
2026-05-04 15:01 21.02763 -157.59351 4016 ft 239 kts 301°
2026-05-04 15:01 21.03544 -157.60911 3988 ft 238 kts 299°
2026-05-04 15:01 21.04292 -157.62499 4001 ft 240 kts 298°
2026-05-04 15:01 21.05038 -157.64083 3997 ft 236 kts 298°
2026-05-04 15:02 21.05780 -157.65653 4002 ft 237 kts 298°
2026-05-04 15:02 21.06527 -157.67226 4001 ft 237 kts 298°
2026-05-04 15:02 21.07274 -157.68797 4003 ft 238 kts 299°
2026-05-04 15:02 21.08030 -157.70385 3999 ft 238 kts 298°
2026-05-04 15:03 21.08777 -157.71957 4006 ft 238 kts 299°
2026-05-04 15:03 21.09531 -157.73542 4006 ft 238 kts 299°
2026-05-04 15:03 21.10275 -157.75106 4010 ft 240 kts 299°
2026-05-04 15:03 21.11034 -157.76702 4012 ft 241 kts 298°
2026-05-04 15:04 21.11787 -157.78288 4002 ft 237 kts 298°
2026-05-04 15:04 21.12536 -157.79865 4001 ft 238 kts 299°
2026-05-04 15:04 21.13287 -157.81444 4005 ft 238 kts 298°
2026-05-04 15:04 21.14035 -157.83017 4004 ft 235 kts 298°
2026-05-04 15:05 21.14776 -157.84574 4007 ft 234 kts 298°
2026-05-04 15:05 21.15518 -157.86133 4011 ft 236 kts 298°
2026-05-04 15:05 21.16263 -157.87699 3838 ft 236 kts 299°
2026-05-04 15:05 21.17012 -157.89272 3562 ft 235 kts 299°
2026-05-04 15:06 21.17754 -157.90836 3212 ft 238 kts 301°
2026-05-04 15:06 21.18503 -157.92406 2832 ft 240 kts 300°
2026-05-04 15:06 21.19255 -157.93991 2599 ft 236 kts 300°
2026-05-04 15:07 21.20733 -157.97108 2091 ft 233 kts 301°
2026-05-04 15:07 21.21470 -157.98658 2029 ft 234 kts 300°
2026-05-04 15:07 21.22210 -158.00214 2010 ft 235 kts 300°
2026-05-04 15:07 21.22951 -158.01773 2026 ft 234 kts 300°
2026-05-04 15:08 21.23690 -158.03333 2009 ft 234 kts 300°
2026-05-04 15:08 21.24417 -158.04868 2026 ft 235 kts 300°
2026-05-04 15:08 21.25154 -158.06423 2008 ft 235 kts 300°
2026-05-04 15:08 21.25892 -158.07983 2011 ft 234 kts 300°
2026-05-04 15:09 21.26628 -158.09539 2028 ft 234 kts 301°
2026-05-04 15:09 21.27367 -158.11103 2010 ft 235 kts 301°
2026-05-04 15:09 21.28107 -158.12667 2029 ft 235 kts 300°
2026-05-04 15:10 21.29580 -158.15785 2009 ft 234 kts 301°
2026-05-04 15:10 21.30316 -158.17341 2024 ft 234 kts 300°
2026-05-04 15:10 21.31776 -158.20427 2021 ft 229 kts 300°
2026-05-04 15:11 21.32508 -158.21936 2006 ft 227 kts 303°
2026-05-04 15:11 21.33531 -158.23155 2005 ft 221 kts 330°
2026-05-04 15:11 21.34941 -158.23669 2022 ft 213 kts
2026-05-04 15:11 21.36365 -158.23363 2021 ft 207 kts 29°
2026-05-04 15:12 21.37444 -158.22383 2015 ft 204 kts 55°
2026-05-04 15:12 21.37961 -158.20983 2024 ft 203 kts 81°
2026-05-04 15:12 21.37824 -158.19529 2026 ft 190 kts 105°
2026-05-04 15:12 21.37354 -158.18278 2022 ft 172 kts 108°
2026-05-04 15:13 21.36886 -158.17172 2022 ft 154 kts 107°
2026-05-04 15:13 21.36465 -158.16162 2024 ft 145 kts 106°
2026-05-04 15:13 21.36071 -158.15182 2022 ft 144 kts 105°
2026-05-04 15:13 21.35688 -158.14226 2020 ft 135 kts 105°
2026-05-04 15:14 21.35325 -158.13314 2024 ft 132 kts 105°
2026-05-04 15:14 21.34970 -158.12416 2025 ft 130 kts 107°
2026-05-04 15:14 21.34612 -158.11513 2027 ft 132 kts 107°
2026-05-04 15:14 21.34251 -158.10608 2020 ft 132 kts 107°
2026-05-04 15:15 21.33892 -158.09706 2002 ft 132 kts 107°
2026-05-04 15:15 21.33531 -158.08802 2023 ft 132 kts 107°
2026-05-04 15:15 21.33171 -158.07901 2018 ft 131 kts 107°
2026-05-04 15:16 21.32644 -158.06060 2019 ft 127 kts 90°
2026-05-04 15:16 21.32596 -158.05125 1976 ft 126 kts 86°
2026-05-04 15:16 21.32546 -158.03259 1663 ft 125 kts 84°
2026-05-04 15:17 21.32529 -158.02331 1471 ft 125 kts 86°
2026-05-04 15:17 21.32530 -158.00477 1154 ft 125 kts 86°
2026-05-04 15:17 21.32526 -157.99544 1000 ft 126 kts 84°
2026-05-04 15:18 21.32528 -157.98586 819 ft 131 kts 86°
2026-05-04 15:18 21.32527 -157.97607 652 ft 131 kts 86°
2026-05-04 15:18 21.32525 -157.96623 474 ft 133 kts 88°
2026-05-04 15:19 21.32527 -157.94658 122 ft 131 kts 88°
2026-05-04 15:19 21.32523 -157.93691 38 ft 126 kts 86°
2026-05-04 15:19 21.32528 -157.92417 31 ft 40 kts 90°
2026-05-04 15:20 21.32557 -157.92279 31 ft 9 kts 46°
2026-05-04 15:20 21.32577 -157.92263 30 ft 0 kts 29°
2026-05-04 15:20 21.32615 -157.92258 30 ft 8 kts
2026-05-04 15:20 21.32643 -157.92258 31 ft 5 kts
2026-05-04 15:21 21.32657 -157.92257 31 ft 0 kts
2026-05-04 15:22 21.32723 -157.92255 31 ft 9 kts
2026-05-04 15:22 21.32831 -157.92270 30 ft 5 kts 319°
2026-05-04 15:23 21.32860 -157.92298 30 ft 5 kts 319°
2026-05-04 15:23 21.32878 -157.92315 30 ft 2 kts 319°
2026-05-04 15:23 21.32884 -157.92320 30 ft 0 kts 319°
2026-05-04 15:23 21.32888 -157.92324 30 ft 0 kts 319°